This demonstration page uses our WeatherBlox Daily Observations layout. Learn more.

Left ArrowRight Arrow

47.50024, -111.30081

Hourly Observations for March 11, 2015

Temp ( °F °C ) Dew Point ( °F °C ) Humidity (%) Winds ( mph kmh ) Pressure ( in mb ) Visibility ( mi km ) Precip ( " mm )
12:53 am 00:53 Clear 46 7.8 21 -6.1 37 37 S 13 20 29.91 1013 10 16 0.00 0.00
1:53 am 01:53 Clear 44 6.7 22 -5.6 41 41 S 12 19 29.90 1013 10 16 0.00 0.00
2:53 am 02:53 Clear 43 6.1 22 -5.6 43 43 SSW 10 17 29.89 1012 10 16 0.00 0.00
3:53 am 03:53 Clear 49 9.4 20 -6.7 32 32 SSW 15 24 29.86 1011 10 16 0.00 0.00
4:53 am 04:53 Clear 48 8.9 21 -6.1 34 34 SSW 16 26 29.86 1011 10 16 0.00 0.00
5:53 am 05:53 Clear 50 10 20 -6.7 30 30 SSW 16 26 29.85 1011 10 16 0.00 0.00
6:53 am 06:53 Clear 49 9.4 20 -6.7 32 32 SSW 14 22 29.88 1012 10 16 0.00 0.00
7:53 am 07:53 Sunny 47 8.3 21 -6.1 36 36 SSW 8 13 29.92 1013 10 16 0.00 0.00
8:53 am 08:53 Mostly Sunny 52 11.1 21 -6.1 30 30 SW 20 31 29.91 1013 10 16 0.00 0.00
9:53 am 09:53 Mostly Sunny 55 12.8 21 -6.1 26 26 SW 17 28 29.93 1013 10 16 0.00 0.00
10:53 am 10:53 Partly Cloudy 56 13.3 20 -6.7 24 24 SSW 14 22 29.93 1013 10 16 0.00 0.00
11:53 am 11:53 Mostly Cloudy 59 15 20 -6.7 22 22 SSW 20 31 29.91 1013 10 16 0.00 0.00
12:53 pm 12:53 Partly Cloudy 61 16.1 20 -6.7 20 20 SSW 12 19 29.89 1012 10 16 0.00 0.00
1:53 pm 13:53 Mostly Cloudy 61 16.1 19 -7.2 20 20 SW 10 17 29.90 1013 10 16 0.00 0.00
2:53 pm 14:53 Mostly Cloudy 62 16.7 19 -7.2 19 19 SW 13 20 29.89 1012 10 16 0.00 0.00
3:53 pm 15:53 Mostly Sunny 62 16.7 20 -6.7 20 20 SW 20 31 29.86 1011 10 16 0.00 0.00
4:53 pm 16:53 Cloudy 61 16.1 21 -6.1 21 21 WSW 15 24 29.87 1012 10 16 0.00 0.00
5:53 pm 17:53 Cloudy 58 14.4 25 -3.9 28 28 W 15 24 29.88 1012 10 16 0.00 0.00
6:53 pm 18:53 Partly Cloudy 55 12.8 26 -3.3 33 33 W 13 20 29.90 1013 10 16 0.00 0.00
7:53 pm 19:53 Clear 51 10.6 29 -1.7 43 43 W 15 24 29.93 1013 10 16 0.00 0.00
8:53 pm 20:53 Cloudy 53 11.7 32 0 45 45 SW 23 37 29.92 1013 10 16 0.00 0.00
9:53 pm 21:53 Mostly Cloudy 50 10 33 0.6 52 52 WSW 18 30 29.94 1014 10 16 0.00 0.00
10:53 pm 22:53 Clear 49 9.4 33 0.6 55 55 WSW 18 30 29.96 1015 10 16 0.00 0.00
11:53 pm 23:53 Clear 47 8.3 33 0.6 59 59 WSW 14 22 29.99 1016 10 16 0.00 0.00

Powered by AerisWeather